Regional Weather Roundup
Issued by NWS Midland/Odessa, TX

Skip options and go directly to product.
Home | Oldest Version | Previous Version | Current Version | All | Text Only | Save Text | Print | Product List | Glossary Off

Skip product version selection by date and time.   

404
ASUS44 KMAF 250310
RWRMAF
MIDLAND AREA WEATHER ROUNDUP
NATIONAL WEATHER SERVICE MIDLAND TX
1000 PM CDT SAT SEP 24 2016

...IN SOUTHWEST TEXAS AND SOUTHEAST NEW MEXICO...

CITY           SKY/WX    TMP DP  RH WIND       PRES   REMARKS
ALPINE         CLOUDY    67  58  75 CALM      30.14R
ANDREWS        CLOUDY    74  55  51 SE3       29.98R
ARTESIA        CLEAR     66  48  52 SW12      29.98R
BIG SPRING     CLOUDY    73  69  88 E12       30.00R
CARLSBAD       CLEAR     69  47  45 W12       29.96R
DRYDEN           N/A     70  62  76 NW9       30.00R
FORT STOCKTON  LGT RAIN  66  62  87 S10       30.00F
GUAD PASS      CLEAR     69  42  37 NW6       30.14R
HOBBS          PTCLDY    68  59  73 CALM      30.02R
MARFA          CLOUDY   N/A N/A N/A E8        30.11R
MIDLAND AIRPK  CLOUDY    79  65  62 E8        29.99R
MIDLAND INTL   CLOUDY    79  55  43 SE8       29.98R
ODESSA         CLOUDY    78  53  41 S9        29.99R
PECOS          CLOUDY    74  58  57 S16G23    29.97R
PRESIDIO       NOT AVBL
SEMINOLE       PTCLDY    70  59  68 CALM      30.00R
SNYDER           N/A     68  66  92 CALM      29.98S
WINK           CLOUDY    76  54  46 S9        29.95R
$$
...OTHER STATIONS IN TEXAS...

CITY           SKY/WX    TMP DP  RH WIND       PRES   REMARKS
ABILENE        TSTM      67  65  93 W13G18    30.00R FOG
AMARILLO       CLEAR     67  43  41 S9        30.01R
AUSTIN         PTCLDY    77  74  90 S6        29.93R
BROWNSVILLE    PTCLDY    84  75  74 SE10      29.90R
CORPUS CHRISTI PTCLDY    83  78  85 SE8       29.90R
DALLAS FTW     CLOUDY    77  72  84 S12       29.93F
DEL RIO        LGT RAIN  72  68  87 CALM      29.93R
EL PASO        PTCLDY    76  39  26 N6        30.01R
HOUSTON INT    MOCLDY    78  76  93 CALM      29.95R
LUBBOCK        PTCLDY    67  62  84 SE5       29.99R
SAN ANGELO     MOCLDY    83  64  52 S8        29.93R
SAN ANTONIO    PTCLDY    79  74  84 SE12      29.94R
WACO           LGT RAIN  77  72  84 SE13      29.94R
WICHITA FALLS  NOT AVBL
$$
...OTHER LOCATIONS IN NEW MEXICO...

CITY           SKY/WX    TMP DP  RH WIND       PRES   REMARKS
ALAMAGORDO     MOCLDY    68  37  32 E7        30.03R
ALBUQUERQUE    CLEAR     63  32  31 N16       30.15R
CANNON AFB     CLEAR     66  32  28 N6        30.05R
CLOVIS         CLEAR     63  36  36 NW9       30.04R
HOLLOMAN AFB   PTCLDY    71  39  30 E3        30.01R
ROSWELL        CLEAR     69  44  40 N7        29.99R
RUIDOSO        CLEAR     55  28  35 W8        30.21R
SANTA FE       CLEAR     56  32  40 N12       30.19R
TRUTH OR CONSE PTCLDY    69  36  29 NW7       30.05R
TUCUMCARI      CLEAR     63  29  27 SW7       30.01R
$$

USA.gov is the U.S. government's official web portal to all federal, state and local government web resources and services.